This is the latest recevied weather packets stored in our database for station/object K9TLD. If no packets are shown the sender has not sent any weather packets the latest 10 day(s).
| Time | Temp. | Humidity | Pressure | Rain* | Wind** | Luminosity | Snow |
|---|---|---|---|---|---|---|---|
| 1778274692 | 16.67° C | 36% | 1007.4 hPa | 0 mm | - | 121 W/m² | - |
| 1778274389 | 16.67° C | 36% | 1007.3 hPa | 0 mm | - | 272 W/m² | - |
| 1778274087 | 15.56° C | 37% | 1007.4 hPa | 0 mm | - | 506 W/m² | - |
| 1778273783 | 15.56° C | 38% | 1007.5 hPa | 0 mm | - | 290 W/m² | - |
| 1778273480 | 15.56° C | 39% | 1007.5 hPa | 0 mm | - | 562 W/m² | - |
| 1778273176 | 15.56° C | 39% | 1007.4 hPa | 0 mm | - | 520 W/m² | - |
| 1778272872 | 14.44° C | 40% | 1007.6 hPa | 0 mm | - | 554 W/m² | - |
| 1778272568 | 13.89° C | 40% | 1007.8 hPa | 0 mm | - | 162 W/m² | - |
| 1778272264 | 15° C | 40% | 1008 hPa | 0 mm | - | 134 W/m² | - |
| 1778271961 | 15° C | 38% | 1007.8 hPa | 0 mm | - | 278 W/m² | - |
| 1778271658 | 15.56° C | 37% | 1008 hPa | 0 mm | - | 204 W/m² | - |
| 1778271355 | 15.56° C | 38% | 1008.1 hPa | 0 mm | - | 328 W/m² | - |
| 1778271051 | 16.67° C | 37% | 1008 hPa | 0 mm | - | 679 W/m² | - |
| 1778270749 | 15.56° C | 36% | 1008.2 hPa | 0 mm | - | 393 W/m² | - |
| 1778270444 | 16.11° C | 39% | 1008 hPa | 0 mm | - | 153 W/m² | - |
| 1778270141 | 15.56° C | 38% | 1008.3 hPa | 0 mm | - | 666 W/m² | - |
| 1778269837 | 16.11° C | 37% | 1008.2 hPa | 0 mm | - | 211 W/m² | - |
| 1778269534 | 16.67° C | 37% | 1008.4 hPa | 0 mm | - | 516 W/m² | - |
| 1778269232 | 16.67° C | 38% | 1008.5 hPa | 0 mm | - | 735 W/m² | - |
| 1778268928 | 16.11° C | 38% | 1008.5 hPa | 0 mm | - | 260 W/m² | - |
| 1778268625 | 17.22° C | 38% | 1008.5 hPa | 0 mm | - | 647 W/m² | - |
| 1778268322 | 16.67° C | 40% | 1008.7 hPa | 0 mm | - | 685 W/m² | - |
| 1778268019 | 16.67° C | 37% | 1008.6 hPa | 0 mm | - | 156 W/m² | - |
| 1778267715 | 17.22° C | 38% | 1008.6 hPa | 0 mm | - | 650 W/m² | - |
| 1778267412 | 17.22° C | 36% | 1008.6 hPa | 0 mm | - | 671 W/m² | - |
* Rain latest hour (hover to see other rain measurements)
** Current wind speed in m/s (hover to see current wind gust speed)